CZ-4 DEB, 26140

Orbit data source: Space-Track

CZ-4 DEB, 26140 is space debris in SSO originally from a launch on Thu, 14 Oct 1999 UTC launched from the Taiyaun Space Center, China (TSC). Debris objects in space refer to the collection of defunct objects orbiting the Earth. Examples of debris include non-operational satellites, rocket bodies, and fragments generated from explosions, collisions, or faulty payload assembly.

Loading next visibility...
Identifier
26140, 1999-057AC
Orbit
SSO
Last TLE update
1 day ago
Origin
Manufacturer
Unknown
Mission
Spacecraft
Bus & Motor
Unknown
Mass
Unknown
Launch date (UTC)
1999-10-14 (26 years ago)
Launch vehicle
Unknown
Launch site
Taiyaun Space Center, China (TSC)
Object type
Payload
Rocket body
Debris
Shape & HBR
Unknown
Radar Cross Section
Small (<0.1 m²)

Expand to show TLE details & history

TLE from 1 day ago
0 CZ-4 DEB
1 26140U 99057AC  25172.62209378  .00004445  00000-0  80419-3 0  9999
2 26140  99.3532  58.7631 0145407 298.2404  81.4162 14.60335577321308
Epoch: 2025-06-21T14:55Z
TLE epoch observation values (Epoch: 2025-06-21T14:55:48.902Z)
Latitude
21.02138°
Longitude
-78.85856°
Altitude
680.826 km
Speed
7.525 km/s
True Right ascension
03h 40m 36s
True Declination
20° 54' 19"
Sunlit
Object was in daylight at epoch
Visualization orbit readout
Latitude
-56.60918°
Longitude
-59.71657°
Altitude
611.942 km
Speed
7.606 km/s
Apparent Right ascension
10h 50m 48s
Apparent Declination
-72° 25' 11"
Sunlit
Object is in daylight
Visualization observer readout
Local Sidereal Time
02:18:18
Azimuth
158.766° S
Elevation
-49°
Doppler factor
1
Orbital elements
Apogee altitude
791.992 km
Perigee altitude
586.463 km
Semi-major axis
7,067.364 km
Eccentricity
0.01454
Inclination
99.3532°
RAAN
58.7631°
Arg. of periapsis
298.2404°
True anomaly
Unknown
Mean anomaly
81.4162°
Eccentric anomaly
Unknown
Mean motion
3.65306 °/min
Orbital period
98.55 mins
BSTAR
0.00080419
Loading maneuver chart data...
Loading SW <> Apogee altitude chart data...
Loading historical data...
Loading historical data...
Loading historical data...
Loading historical data...
Loading historical data...
Loading historical data...
Loading historical data...

CZ-4 DEB Visibility forecast

Observer location: undefined°, undefined°

Span
Click to sort rows by Start time (UTC) header in descending order
Start Az.
Max El. time (UTC)
Max El. Az.
Max El.
End time (UTC)
End Az.
7 mins2025-06-22 15:38:33.098Z124.552° SE2025-06-22 15:41:33.098Z73.986° E29.137°2025-06-22 15:45:33.098Z7.586° NNE
6 mins2025-06-22 17:16:33.098Z220.033° SW2025-06-22 17:19:33.098Z271.056° WNW22.77°2025-06-22 17:22:33.098Z314.197° NW
8 mins2025-06-23 05:14:33.098Z20.682° NNE2025-06-23 05:18:33.098Z135.957° SSE43.42°2025-06-23 05:22:33.098Z187.864° SSW
4 mins2025-06-23 06:53:33.098Z318.086° NNW2025-06-23 06:54:33.098Z305.428° NW14.431°2025-06-23 06:57:33.098Z268.877° W
|